星链-5801 (STARLINK-5801 )

导读 | 星芒AI

STARLINK-5801 是 SpaceX Starlink 卫星互联网项目中的一个组成部分,属于“星链”计划的数千颗低轨卫星之一。该卫星由 SpaceX 设计和发射,旨在为全球用户提供高速、低延迟的宽带互联网服务。STARLINK-5801 运行在近地轨道,具备先进的通信技术和自动避障系统,以确保网络稳定和安全。它支持 Starlink 系统在全球范围内的覆盖扩展,特别是在偏远和网络基础设施薄弱的地区。

基本信息
目录编号:
56005
目录名称:
STARLINK-5801
国际标识:
2023-042V
轨道中心:
EARTH
卫星名称:
星链-5801
卫星全名:
星链-5801 (STARLINK-5801 )
卫星状态:
在轨 (已飞行1003 天)
发射日期:
2023-03-24 UTC
国别 :
美国 (US)
星等 :
--
轨道信息
数据来源 国际轨道数据 AOE轨道数据
星历时间 2025-12-21T09:15:25+0800
14小时前
查看轨道信息
2025-12-18T06:00:00+0800
3天前
查看轨道信息
半长轴 6937.105km 6937.225km
偏心率 0.0001943 0.0001381
轨道倾角 43.001° 43.002°
近地点辐角 277.375° 280.506°
升交点赤经 123.204° 140.242°
平近点角 82.687° 18.650°
近地点 557.62km 558.131km
远地点 560.316km 560.049km
周期 95.836分钟 95.838分钟
每日圈数 15.025724 15.025333
详细信息
固有亮度:
5
最大亮度:
2.5
卫星平台:
Starlink v1.5
覆盖范围:
全球
运营商:
太空探索技术公司
运营商所在国:
美国
制造商(研发单位):
太空探索技术公司
制造商所在国:
美国
使用方式:
暂无
卫星简介
星链(Starlink)计划是由太空探索技术公司(SpaceX)提出的一个巨型低轨卫星互联网星座项目,计划在2019年至2024年间在太空搭建由约1.2万颗卫星组成的“星链”网络,其中1584颗将部署在地球上空550千米处的近地轨道,并从2020年开始工作。该卫星仍在工作。
2D轨道图
3D轨道图
轨道高度分析图
轨道倾角分析图
轨道综合分析图
查看轨道综合分析图